San Francisco International Airport
KSFO : now visible

Airfield :











YOU CAN JOIN US ON...

 
LOGIN :

Register | Disclaimer

   EN    FR    IT 

 









Legend :    VFR   Marginal VFR   IFR   Intensive IFR   Very Intensive IFR
Visi :
Ceiling :
>= 8 km
>= 3000ft
5 to 8 km
1000 to 3000 ft
1500m to 5 km
500 to 1000 ft
800 to 1500m
200 to 500 ft
< 800m
< 200 ft
Symbols :   Thunderstorms  Fog  Heavy snow  Heavy precipitations  Wind > 20 kt







- Airport Elevation : 13 ft
- IATA code : SFO


KSFO - San Francisco International

CURRENT METAR :
  • 201456Z 18003KT 10SM CLR 16/12 A2996 RMK AO2 SLP144 T01610122 51011

EXPIRED METARs :
  • 201356Z 17004KT 10SM CLR 16/11 A2995 RMK AO2 SLP140 T01560111

TAF KSFO
Valid from the 20 at 15:00 until the 21 at 18:00 UTC


201502Z 2015/2118 VRB04KT P6SM SKC
FM201700 04006KT P6SM SKC
FM202100 29014KT P6SM SKC
FM210400 29008KT P6SM SKC
FM210800 VRB03KT P6SM SKC
No reported NOTAMs for that airfield.



MET'MAP, your aeronautical weather chart ! - Copyright ORBIFLY December 2007 - Disclaimer

ORBIFLY MET'MAP TEAM :

Programming & Development : Alexandra Zaïnal
Concept & Development : Baudouin d'Aumeries
Co-Development & Prog : Marc-Olivier Méhu
Technical & hardware support : Manuel Goepfert

Contact : metmap@orbifly.com




SOURCES & CREDITS :

   NOAA       Earth
Advisory